Change the Weather History Date:

Saturday, October 5, 2013

  Actual Average Record
Temperature  
Mean Temperature 48 °F -  
Max Temperature 55 °F 63 °F 93 °F (1963)
Min Temperature 42 °F 41 °F 21 °F (1952)
Degree Days  
Heating Degree Days 16    
Moisture  
Dew Point 43 °F    
Average Humidity 80    
Maximum Humidity 100    
Minimum Humidity 58    
Precipitation  
Precipitation 0.00 in - - ()
Sea Level Pressure  
Sea Level Pressure 29.76 in    
Wind  
Wind Speed 11 mph (SSE)    
Max Wind Speed 17 mph    
Max Gust Speed 28 mph    
Visibility 9 miles    
Events Rain    
Averages and records for this station are not official NWS values.
T = Trace of Precipitation, MM = Missing Value Source: NWS Daily Summary

Daily Weather History Graph

Daily Weather History Graph

Search for Another Location

Airport or City:

Trip Planner

Search our weather history database for the weather conditions in past years. The results will help you decide how hot, cold, wet, or windy it might be!

Date:

Astronomy

Oct. 05, 2013 Rise Set
Actual Time 7:26 AM CDT 6:54 PM CDT
Civil Twilight 6:56 AM CDT 7:24 PM CDT
Nautical Twilight 6:22 AM CDT 7:58 PM CDT
Astronomical Twilight 5:47 AM CDT 8:32 PM CDT
Moon 8:10 AM CDT (10/5) 7:09 PM CDT (10/5)
Length of Visible Light 12h 27m
Length of Day
11h 28m
New Moon, 1% of the Moon is Illuminated
Oct 5
New Moon
Oct 11
First Quarter
Oct 18
Full
Oct 26
Last Quarter
Nov 3
New

Hourly Weather History & Observations

Time (CDT) Temp. Windchill Dew Point Humidity Pressure Visibility Wind Dir Wind Speed Gust Speed Precip Events Conditions
12:12 AM 53.6 °F - 51.8 °F 94% 29.79 in 10.0 mi ESE 15.0 mph 21.9 mph N/A   Overcast
12:33 AM 53.6 °F - 51.8 °F 94% 29.79 in 7.0 mi ESE 15.0 mph 20.7 mph N/A   Overcast
12:52 AM 53.6 °F - 51.8 °F 94% 29.78 in 7.0 mi ESE 12.7 mph 21.9 mph N/A   Overcast
1:13 AM 53.6 °F - 51.8 °F 94% 29.77 in 10.0 mi ESE 12.7 mph 20.7 mph N/A   Overcast
1:32 AM 53.6 °F - 51.8 °F 94% 29.78 in 10.0 mi ESE 11.5 mph 18.4 mph N/A   Overcast
1:52 AM 53.6 °F - 51.8 °F 94% 29.78 in 10.0 mi ESE 15.0 mph 20.7 mph N/A   Overcast
2:13 AM 53.6 °F - 51.8 °F 94% 29.76 in 7.0 mi East 16.1 mph 23.0 mph N/A   Overcast
2:32 AM 53.6 °F - 51.8 °F 94% 29.76 in 5.0 mi ESE 13.8 mph 19.6 mph N/A   Overcast
2:52 AM 53.6 °F - 51.8 °F 94% 29.74 in 4.0 mi ESE 16.1 mph 20.7 mph N/A   Overcast
3:13 AM 53.6 °F - 53.6 °F 100% 29.73 in 5.0 mi ESE 16.1 mph 24.2 mph N/A   Overcast
3:32 AM 53.6 °F - 53.6 °F 100% 29.72 in 5.0 mi ESE 15.0 mph 27.6 mph N/A   Overcast
3:52 AM 53.6 °F - 53.6 °F 100% 29.72 in 4.0 mi ESE 13.8 mph 20.7 mph N/A   Overcast
4:13 AM 53.6 °F - 53.6 °F 100% 29.73 in 7.0 mi ESE 17.3 mph 23.0 mph N/A   Overcast
4:32 AM 53.6 °F - 53.6 °F 100% 29.72 in 5.0 mi ESE 13.8 mph 23.0 mph N/A Rain Rain
4:52 AM 53.6 °F - 53.6 °F 100% 29.71 in 3.0 mi ESE 16.1 mph 23.0 mph N/A   Drizzle
5:13 AM 53.6 °F - 53.6 °F 100% 29.72 in 2.5 mi ESE 13.8 mph 18.4 mph N/A   Drizzle
5:32 AM 55.4 °F - 53.6 °F 94% 29.71 in 3.0 mi ESE 10.4 mph 18.4 mph N/A   Drizzle
5:52 AM 55.4 °F - 53.6 °F 94% 29.71 in 2.5 mi ESE 12.7 mph 16.1 mph N/A   Heavy Drizzle
6:12 AM 51.8 °F - 50.0 °F 94% 29.74 in 5.0 mi SW 11.5 mph - N/A Rain Light Rain
6:32 AM 48.2 °F - 46.4 °F 93% 29.76 in 7.0 mi SSW 11.5 mph - N/A Rain Light Rain
6:53 AM 46.4 °F 40.4 °F 44.6 °F 93% 29.76 in 10.0 mi SW 13.8 mph 19.6 mph N/A   Overcast
7:13 AM 46.4 °F 41.9 °F 42.8 °F 87% 29.76 in 10.0 mi SW 9.2 mph - N/A   Overcast
7:32 AM 44.6 °F 39.2 °F 42.8 °F 93% 29.77 in 10.0 mi SW 10.4 mph - N/A   Overcast
7:53 AM 44.6 °F 39.2 °F 41.0 °F 87% 29.78 in 10.0 mi SW 10.4 mph - N/A   Overcast
8:13 AM 44.6 °F 40.7 °F 39.2 °F 81% 29.78 in 10.0 mi SSW 6.9 mph - N/A   Overcast
8:32 AM 42.8 °F 39.3 °F 37.4 °F 81% 29.78 in 10.0 mi SSW 5.8 mph - N/A   Mostly Cloudy
8:53 AM 44.6 °F 39.7 °F 39.2 °F 81% 29.78 in 10.0 mi South 9.2 mph - N/A   Scattered Clouds
9:13 AM 44.6 °F 39.7 °F 39.2 °F 81% 29.79 in 10.0 mi South 9.2 mph - N/A   Clear
9:32 AM 44.6 °F 40.2 °F 37.4 °F 76% 29.79 in 10.0 mi South 8.1 mph - N/A   Clear
9:53 AM 44.6 °F 39.7 °F 37.4 °F 76% 29.78 in 10.0 mi South 9.2 mph - N/A   Clear
10:13 AM 44.6 °F 39.7 °F 39.2 °F 81% 29.78 in 10.0 mi South 9.2 mph - N/A   Scattered Clouds
10:32 AM 46.4 °F 41.9 °F 37.4 °F 71% 29.78 in 10.0 mi South 9.2 mph - N/A   Scattered Clouds
10:53 AM 46.4 °F 40.7 °F 37.4 °F 71% 29.79 in 10.0 mi South 12.7 mph - N/A   Scattered Clouds
11:12 AM 48.2 °F - 39.2 °F 71% 29.78 in 10.0 mi South 8.1 mph 16.1 mph N/A   Clear
11:33 AM 48.2 °F - 37.4 °F 66% 29.78 in 10.0 mi South 11.5 mph - N/A   Clear
11:53 AM 50.0 °F - 39.2 °F 66% 29.77 in 10.0 mi South 10.4 mph - N/A   Clear
12:12 PM 50.0 °F - 39.2 °F 66% 29.78 in 10.0 mi South 12.7 mph - N/A   Clear
12:33 PM 48.2 °F - 37.4 °F 66% 29.77 in 10.0 mi South 13.8 mph - N/A   Clear
12:53 PM 51.8 °F - 39.2 °F 62% 29.77 in 10.0 mi SSE 11.5 mph - N/A   Clear
1:12 PM 51.8 °F - 39.2 °F 62% 29.77 in 10.0 mi South 10.4 mph 16.1 mph N/A   Scattered Clouds
1:33 PM 51.8 °F - 39.2 °F 62% 29.77 in 10.0 mi South 10.4 mph - N/A   Scattered Clouds
1:52 PM 51.8 °F - 39.2 °F 62% 29.77 in 10.0 mi South 12.7 mph - N/A   Scattered Clouds
2:13 PM 51.8 °F - 39.2 °F 62% 29.76 in 10.0 mi South 9.2 mph - N/A   Scattered Clouds
2:33 PM 51.8 °F - 39.2 °F 62% 29.77 in 10.0 mi SSW 6.9 mph - N/A   Mostly Cloudy
2:52 PM 53.6 °F - 39.2 °F 58% 29.76 in 10.0 mi South 8.1 mph - N/A   Mostly Cloudy
3:13 PM 53.6 °F - 39.2 °F 58% 29.76 in 10.0 mi South 8.1 mph - N/A   Scattered Clouds
3:33 PM 53.6 °F - 39.2 °F 58% 29.75 in 10.0 mi SSE 6.9 mph - N/A   Scattered Clouds
3:52 PM 53.6 °F - 39.2 °F 58% 29.75 in 10.0 mi South 8.1 mph - N/A   Scattered Clouds
4:13 PM 53.6 °F - 39.2 °F 58% 29.76 in 10.0 mi South 8.1 mph - N/A   Mostly Cloudy
4:33 PM 53.6 °F - 39.2 °F 58% 29.75 in 10.0 mi SSE 5.8 mph - N/A   Overcast
4:52 PM 51.8 °F - 39.2 °F 62% 29.76 in 10.0 mi SE 5.8 mph - N/A   Overcast
5:13 PM 51.8 °F - 39.2 °F 62% 29.77 in 10.0 mi SE 8.1 mph - N/A   Overcast
5:32 PM 51.8 °F - 39.2 °F 62% 29.76 in 10.0 mi ESE 6.9 mph - N/A   Mostly Cloudy
5:53 PM 50.0 °F - 39.2 °F 66% 29.77 in 10.0 mi SE 3.5 mph - N/A   Mostly Cloudy
6:13 PM 48.2 °F - 41.0 °F 76% 29.76 in 10.0 mi Calm Calm - N/A   Mostly Cloudy
6:32 PM 48.2 °F - 39.2 °F 71% 29.78 in 10.0 mi SE 6.9 mph - N/A   Overcast
6:53 PM 48.2 °F - 39.2 °F 71% 29.76 in 10.0 mi Calm Calm - N/A   Overcast
7:13 PM 48.2 °F - 41.0 °F 76% 29.76 in 10.0 mi Calm Calm - N/A   Overcast
7:32 PM 48.2 °F - 41.0 °F 76% 29.77 in 10.0 mi Calm Calm - N/A   Overcast
7:53 PM 48.2 °F - 42.8 °F 82% 29.77 in 10.0 mi Calm Calm - N/A   Overcast
8:12 PM 48.2 °F - 41.0 °F 76% 29.78 in 10.0 mi Calm Calm - N/A   Overcast
8:32 PM 46.4 °F 44.3 °F 42.8 °F 87% 29.78 in 10.0 mi North 4.6 mph - N/A   Overcast
8:53 PM 46.4 °F 45.2 °F 42.8 °F 87% 29.77 in 10.0 mi NNE 3.5 mph - N/A   Overcast
9:12 PM 46.4 °F - 42.8 °F 87% 29.77 in 10.0 mi Calm Calm - N/A   Overcast
9:32 PM 44.6 °F - 42.8 °F 93% 29.77 in 10.0 mi Calm Calm - N/A   Overcast
9:53 PM 46.4 °F 44.3 °F 42.8 °F 87% 29.78 in 10.0 mi North 4.6 mph - N/A   Overcast
10:12 PM 46.4 °F 44.3 °F 41.0 °F 81% 29.78 in 10.0 mi NNE 4.6 mph - N/A   Overcast
10:32 PM 46.4 °F 45.2 °F 42.8 °F 87% 29.78 in 10.0 mi North 3.5 mph - N/A   Overcast
10:53 PM 46.4 °F 43.5 °F 42.8 °F 87% 29.78 in 10.0 mi North 5.8 mph - N/A   Overcast
11:12 PM 46.4 °F - 42.8 °F 87% 29.78 in 10.0 mi Calm Calm - N/A   Overcast
11:33 PM 46.4 °F 45.2 °F 42.8 °F 87% 29.78 in 10.0 mi NNE 3.5 mph - N/A   Overcast
11:52 PM 44.6 °F - 41.0 °F 87% 29.77 in 10.0 mi Calm Calm - N/A   Scattered Clouds